User: anonymous   Login
Location: Mount Graham
(32.7016°N, 109.8912°W)
Time: 23:15:05
(UTC-07:00)
Language:

Cosmos 1340 - Orbit

View from above orbital plane
View from above orbital plane
View from above satellite
View from above satellite

Ground track
Ground track

The orbit data is extracted from the following two-line orbital elements,

1 13067U 82013A   14303.68599910  .00003649  00000-0  20015-3 0  5112
2 13067 081.1894 171.0127 0003778 133.7296 257.1639 15.13938081782149
Epoch (UTC): 30 October 2014 16:27:50
Eccentricity: 0.0003778
inclination: 81.1894°
perigee height: 521 km
apogee height: 527 km
right ascension of ascending node: 171.0127°
argument of perigee: 133.7296°
revolutions per day: 15.13938081
mean anomaly at epoch: 257.1639°
orbit number at epoch: 78214

The dashed part of the orbit path shows where the satellite is in the earth's shadow,  

DLR